Temp
68 72 75 76 76 76 76 76 76 75 76 76 76 76 76 76 76 76 76 77 77 78 77 77 77 77 76 75 75 75 74 74 74 75 74 74 74 74 74 73 73 71 73
71 73 73 75 76 76 76 75 75 75 76 76 76 76 76 76 76 76 76 76 76 76 77 77 77 76 75 74 74 74 74 73 72 71 72 73 73 74 74 72 73 73 72
71 73 74 74 75 75 75 75 75 75 76 76 76 76 76 76 76 75 75 76 75 76 77 77 76 75 74 74 74 73 73 73 72 71 70 65 67 74 73 71 73 74 74
73 73 73 72 74 74 74 74 74 75 75 76 76 76 76 75 75 75 75 75 75 76 77 76 75 74 73 73 73 73 73 72 71 70 66 67 71 74 73 73 73 72 72
72 73 72 72 74 74 74 74 74 74 75 75 75 76 76 75 75 75 75 75 75 76 76 76 75 74 73 73 73 73 73 72 69 67 64 64 66 73 73 72 72 71 71
72 71 70 72 73 74 74 74 74 75 75 75 75 76 76 75 74 74 75 74 75 76 76 75 74 73 73 73 73 72 72 71 68 63 63 67 66 73 72 71 71 71 71
70 70 71 71 73 73 73 74 74 74 75 75 75 75 75 74 74 74 74 74 74 75 74 74 73 72 72 72 72 71 71 69 65 62 62 64 70 72 72 71 71 71 71
71 70 71 68 70 72 73 73 73 73 74 74 74 74 74 74 74 73 74 73 73 74 73 73 72 72 72 71 71 70 68 68 66 63 62 63 71 72 72 71 70 70 70
71 70 69 70 69 68 69 70 71 72 72 72 72 72 72 72 72 72 72 72 74 74 73 72 71 71 71 71 70 69 67 65 61 64 66 63 70 72 71 71 70 70 70
69 69 67 67 69 68 68 66 68 69 69 70 69 68 67 68 68 68 68 71 72 73 72 71 70 70 70 69 68 67 64 65 63 63 62 64 70 71 71 70 69 69 69
67 68 67 66 68 67 67 66 65 66 66 66 65 64 65 68 67 66 65 68 70 70 71 70 70 69 67 67 67 65 63 68 66 62 61 67 70 70 70 69 69 69 69
64 65 67 65 66 68 72 66 66 67 66 66 65 66 67 68 68 66 63 64 67 67 69 69 68 66 64 65 64 63 63 63 65 61 62 68 70 70 69 68 68 68 68
64 65 67 68 68 69 68 65 64 66 66 65 64 66 67 65 66 64 62 62 62 62 66 66 65 64 65 65 65 61 66 62 65 61 63 66 70 70 69 68 68 68 67
57 59 64 68 70 68 68 67 65 64 64 65 64 66 66 66 64 64 61 62 62 63 63 63 63 64 65 66 66 66 66 61 59 59 60 63 67 70 70 69 68 67 67
54 54 58 61 65 68 67 67 66 64 65 66 65 66 66 66 65 64 64 63 63 62 62 62 63 63 64 66 66 65 63 62 64 63 58 60 64 69 70 70 69 69 68
53 53 55 59 59 66 65 67 67 65 64 65 65 66 65 65 63 65 64 63 65 64 62 62 61 61 64 65 65 62 61 61 62 61 61 58 62 66 69 70 70 70 70
51 52 53 54 57 62 63 63 66 67 67 64 64 66 66 65 64 63 63 62 65 62 64 65 65 65 64 65 64 61 61 61 61 61 59 58 59 61 64 68 69 70 70
49 49 51 53 53 55 60 60 60 65 67 66 66 64 65 66 65 62 62 62 65 62 61 60 59 58 58 61 62 62 59 60 61 61 61 63 62 63 62 64 67 68 69
48 48 48 50 50 52 57 59 61 64 64 67 66 66 65 65 64 62 62 61 64 62 61 61 58 58 57 56 57 56 56 56 58 60 59 59 59 61 58 60 61 62 66
50 49 48 48 50 51 54 58 60 59 61 63 64 64 66 66 64 62 61 61 63 62 60 58 58 58 57 57 59 57 55 55 55 55 56 58 57 57 57 57 56 56 59
51 51 50 49 49 52 50 52 54 56 59 61 62 63 63 64 63 63 61 61 60 60 59 59 58 57 55 54 53 52 53 54 54 53 54 54 55 56 55 55 54 54 55
48 49 50 51 51 51 51 52 52 53 56 60 61 62 63 63 63 63 63 61 60 59 59 59 58 54 54 53 51 49 48 51 53 54 53 54 53 54 54 55 54 54 54
45 46 48 49 50 51 51 52 53 54 56 58 61 60 61 63 63 63 62 62 61 61 60 60 60 57 54 52 54 53 47 46 49 52 51 51 52 51 52 53 54 53 53
44 45 45 46 47 49 49 48 50 49 49 52 54 55 61 62 62 62 62 62 61 60 60 60 60 59 56 53 53 55 52 52 49 48 50 50 51 51 51 50 51 54 54
43 43 44 44 44 46 46 46 46 48 50 51 52 54 58 61 62 62 62 61 60 61 61 59 58 59 58 56 54 51 51 53 53 51 51 52 53 53 54 55 55 54 54
42 41 42 42 42 44 44 45 45 44 48 49 50 52 54 56 60 61 61 61 61 61 61 60 60 59 60 59 57 55 54 52 51 51 50 53 52 54 55 55 54 55 55
MSLP
1015.65 1015.66 1016.09 1016.28 1016.65 1016.96 1017.32 1017.72 1018.08 1018.35 1018.63 1018.88 1019.14 1019.41 1019.59 1019.71 1019.84 1019.63 1019.80 1019.97 1020.14 1020.22 1020.51 1020.75 1020.99 1021.33 1021.62 1021.85 1021.99 1022.25 1022.48 1022.68 1022.81 1022.88 1022.95 1022.99 1022.97 1023.15 1023.20 1023.29 1023.25 1023.28 1023.32
1015.11 1015.50 1016.04 1016.45 1016.65 1017.04 1017.63 1017.91 1018.19 1018.60 1018.66 1018.74 1019.26 1019.52 1019.67 1019.85 1020.01 1020.04 1019.94 1020.05 1020.31 1020.48 1020.80 1021.14 1021.44 1021.65 1022.05 1022.29 1022.56 1022.74 1022.96 1023.14 1023.34 1023.55 1023.57 1023.45 1023.34 1023.40 1023.48 1023.60 1023.55 1023.61 1023.81
1015.24 1015.62 1016.09 1016.38 1016.89 1017.27 1017.56 1018.09 1018.49 1018.79 1018.88 1019.04 1019.22 1019.52 1019.70 1019.99 1020.00 1020.21 1020.15 1020.12 1020.40 1020.77 1021.00 1021.44 1021.80 1022.02 1022.41 1022.61 1022.82 1023.14 1023.37 1023.56 1023.68 1023.91 1024.01 1023.97 1023.85 1023.71 1023.86 1024.05 1023.81 1023.93 1023.96
1015.22 1015.69 1016.03 1016.43 1016.86 1017.46 1017.80 1018.16 1018.49 1018.84 1019.08 1019.16 1019.48 1019.64 1019.71 1020.03 1020.29 1020.23 1020.22 1020.51 1020.64 1020.89 1021.26 1021.63 1022.12 1022.41 1022.65 1022.92 1023.13 1023.35 1023.60 1023.87 1024.05 1024.25 1024.37 1024.38 1024.32 1024.16 1024.27 1024.21 1024.34 1024.53 1024.48
1015.49 1015.93 1016.28 1016.58 1017.10 1017.35 1017.72 1018.36 1018.78 1019.01 1019.11 1019.27 1019.66 1019.74 1019.84 1019.95 1020.40 1020.58 1020.45 1020.80 1021.12 1021.16 1021.50 1021.90 1022.35 1022.76 1022.84 1023.16 1023.32 1023.62 1023.69 1024.00 1024.31 1024.55 1024.84 1024.92 1024.84 1024.69 1024.79 1024.84 1024.93 1025.05 1025.08
1015.67 1016.06 1016.60 1016.88 1017.32 1017.67 1017.91 1018.37 1018.73 1019.23 1019.48 1019.55 1019.59 1020.09 1019.95 1020.00 1020.38 1020.54 1020.85 1020.97 1021.37 1021.56 1021.87 1022.18 1022.72 1023.00 1023.24 1023.32 1023.51 1023.73 1023.93 1024.17 1024.50 1024.84 1025.07 1025.10 1025.11 1025.07 1025.22 1025.40 1025.42 1025.47 1025.41
1015.90 1016.25 1016.82 1017.10 1017.38 1017.80 1018.04 1018.43 1018.79 1019.19 1019.61 1019.78 1019.92 1020.11 1020.34 1020.40 1020.46 1020.63 1020.93 1021.28 1021.41 1021.87 1022.31 1022.64 1022.95 1023.28 1023.50 1023.77 1023.80 1023.95 1024.08 1024.38 1024.70 1025.06 1025.31 1025.34 1025.19 1025.33 1025.38 1025.64 1025.70 1025.66 1025.83
1015.66 1016.33 1016.78 1017.41 1017.70 1017.88 1018.08 1018.51 1018.85 1019.38 1019.63 1019.83 1020.14 1020.25 1020.44 1020.62 1020.81 1020.94 1021.07 1021.48 1021.64 1022.03 1022.48 1023.00 1023.22 1023.46 1023.75 1023.96 1024.13 1024.15 1024.40 1024.63 1024.88 1025.18 1025.49 1025.57 1025.56 1025.65 1025.66 1025.82 1025.94 1026.05 1026.12
1015.56 1016.24 1017.04 1017.20 1017.79 1018.21 1018.17 1018.53 1018.91 1019.27 1019.64 1019.99 1020.48 1020.48 1020.55 1020.70 1020.87 1021.21 1021.26 1021.67 1021.87 1022.28 1022.69 1023.04 1023.45 1023.68 1023.96 1024.28 1024.41 1024.44 1024.54 1024.95 1025.19 1025.45 1025.68 1025.89 1025.84 1025.82 1025.96 1026.08 1026.09 1026.23 1026.40
1016.14 1016.50 1017.07 1017.52 1017.68 1018.08 1018.50 1018.56 1018.79 1019.45 1019.58 1020.03 1020.50 1020.79 1020.90 1020.92 1021.12 1021.36 1021.52 1021.84 1021.98 1022.59 1022.98 1023.20 1023.55 1023.83 1023.97 1024.44 1024.71 1024.87 1025.03 1025.10 1025.37 1025.63 1025.85 1025.97 1026.06 1026.16 1026.25 1026.36 1026.51 1026.50 1026.58
1016.89 1016.80 1017.11 1017.77 1017.81 1018.20 1018.63 1018.86 1019.09 1019.30 1019.64 1020.03 1020.52 1020.76 1020.96 1021.21 1021.43 1021.49 1021.91 1021.92 1022.24 1022.71 1023.35 1023.67 1023.79 1023.90 1024.22 1024.50 1024.85 1025.04 1025.15 1025.40 1025.63 1025.84 1026.08 1026.10 1026.08 1026.35 1026.50 1026.65 1026.72 1026.75 1026.70
1017.37 1017.30 1017.40 1017.69 1017.97 1018.37 1018.62 1019.09 1019.37 1019.65 1019.77 1019.94 1020.49 1020.76 1020.85 1021.25 1021.52 1021.83 1022.02 1022.30 1022.62 1023.01 1023.45 1023.79 1024.27 1024.26 1024.49 1024.84 1025.05 1025.21 1025.32 1025.48 1025.63 1025.88 1026.02 1026.11 1026.26 1026.35 1026.66 1026.76 1026.86 1026.94 1026.96
1017.82 1017.69 1017.79 1017.69 1017.92 1018.35 1018.75 1019.35 1019.58 1019.68 1019.81 1020.05 1020.43 1020.71 1020.93 1021.26 1021.56 1022.14 1022.21 1022.59 1022.97 1023.36 1023.75 1024.18 1024.57 1024.70 1024.78 1024.87 1025.04 1025.40 1025.27 1025.46 1025.61 1025.95 1025.88 1026.06 1026.22 1026.38 1026.55 1026.77 1026.93 1026.97 1027.11
1019.31 1018.65 1018.10 1017.82 1017.72 1018.28 1018.78 1019.27 1019.54 1019.83 1019.92 1020.05 1020.46 1020.65 1020.85 1021.27 1021.51 1021.95 1022.24 1022.72 1022.86 1023.45 1023.87 1024.14 1024.52 1024.77 1024.92 1024.86 1024.92 1025.10 1025.18 1025.63 1025.81 1026.00 1026.01 1026.09 1026.16 1026.27 1026.44 1026.62 1026.79 1026.98 1027.02
1020.24 1019.06 1018.97 1018.26 1018.45 1018.37 1018.73 1019.00 1019.31 1019.65 1019.83 1020.02 1020.26 1020.48 1020.70 1021.04 1021.52 1021.86 1022.18 1022.51 1022.72 1023.26 1023.72 1024.02 1024.28 1024.54 1024.95 1024.81 1024.84 1025.07 1025.29 1025.49 1025.54 1025.72 1025.98 1026.02 1026.07 1026.16 1026.24 1026.33 1026.39 1026.58 1026.77
1021.47 1021.22 1020.73 1019.55 1018.98 1018.92 1018.77 1018.94 1018.97 1019.28 1019.53 1019.85 1020.09 1020.32 1020.59 1020.75 1021.37 1021.60 1022.05 1022.37 1022.44 1023.00 1023.50 1023.87 1024.22 1024.34 1024.60 1024.72 1024.92 1025.11 1025.37 1025.50 1025.47 1025.68 1025.76 1025.96 1025.98 1025.97 1026.06 1026.03 1026.02 1026.09 1026.13
1022.12 1021.63 1019.83 1019.65 1019.40 1019.34 1019.05 1019.72 1019.21 1019.04 1019.20 1019.52 1019.88 1020.18 1020.38 1020.70 1021.14 1021.57 1021.92 1022.33 1022.41 1022.88 1023.26 1023.59 1023.79 1024.02 1024.27 1024.40 1024.67 1025.04 1025.22 1025.32 1025.41 1025.40 1025.60 1025.74 1025.90 1025.95 1025.87 1025.83 1025.85 1025.79 1025.69
1023.50 1021.25 1021.21 1020.53 1020.21 1020.40 1020.22 1020.41 1020.31 1019.42 1018.91 1019.15 1019.53 1019.92 1020.24 1020.61 1020.96 1021.59 1021.89 1022.18 1022.25 1022.83 1023.29 1023.73 1023.92 1024.41 1024.61 1024.65 1024.76 1024.88 1025.18 1025.18 1025.23 1025.16 1025.23 1025.28 1025.45 1025.54 1025.70 1025.76 1025.71 1025.55 1025.46
1023.19 1022.49 1022.01 1021.39 1022.09 1022.03 1020.07 1020.28 1019.71 1019.34 1019.17 1018.94 1019.13 1019.53 1019.97 1020.39 1020.93 1021.33 1021.72 1022.18 1022.16 1022.78 1023.28 1023.61 1024.04 1024.18 1024.61 1024.88 1024.98 1025.16 1025.27 1025.28 1025.16 1025.08 1025.07 1025.09 1025.11 1025.03 1025.32 1025.43 1025.40 1025.33 1025.24
1024.08 1023.19 1023.17 1022.20 1022.60 1022.19 1021.34 1019.92 1019.75 1019.10 1018.83 1018.92 1019.10 1019.27 1019.72 1020.14 1020.66 1021.19 1021.59 1021.98 1022.07 1022.61 1023.36 1023.67 1023.90 1024.28 1024.57 1024.79 1025.15 1025.32 1025.34 1025.25 1025.19 1025.09 1024.98 1024.86 1024.89 1024.95 1025.02 1025.08 1025.09 1025.10 1024.94
1024.30 1023.63 1022.96 1022.80 1023.42 1022.62 1021.80 1021.33 1020.98 1020.36 1020.16 1018.97 1018.91 1019.34 1019.76 1020.17 1020.61 1021.11 1021.44 1021.84 1022.24 1022.46 1022.75 1023.37 1023.76 1024.02 1024.61 1024.80 1025.40 1025.64 1025.44 1025.17 1024.98 1024.91 1024.83 1024.80 1024.77 1024.74 1024.75 1024.77 1024.81 1024.78 1024.63
1024.59 1023.77 1023.71 1023.38 1023.50 1023.04 1022.39 1022.56 1021.92 1021.69 1020.67 1019.73 1019.36 1019.60 1019.79 1020.00 1020.42 1020.81 1021.13 1021.47 1022.04 1022.42 1022.66 1023.01 1023.53 1024.07 1024.50 1024.67 1025.29 1025.84 1025.82 1025.18 1024.67 1024.41 1024.41 1024.40 1024.41 1024.42 1024.36 1024.28 1024.36 1024.24 1024.21
1024.75 1024.62 1024.48 1024.14 1023.49 1022.95 1022.76 1022.14 1021.52 1020.87 1020.50 1019.72 1019.64 1019.78 1019.72 1019.86 1020.08 1020.27 1020.64 1020.97 1021.48 1021.88 1022.37 1022.52 1022.85 1023.26 1024.01 1024.31 1024.59 1025.01 1025.55 1025.43 1025.03 1024.40 1024.16 1024.15 1024.08 1024.08 1023.97 1023.91 1023.81 1023.63 1023.65
1025.30 1025.01 1024.97 1024.49 1024.33 1023.46 1023.10 1022.63 1021.94 1021.67 1021.15 1020.84 1021.13 1020.56 1019.66 1019.80 1019.84 1020.10 1020.39 1020.76 1021.24 1021.39 1021.89 1022.21 1022.39 1022.81 1023.27 1023.98 1024.56 1024.50 1024.64 1024.80 1025.04 1025.10 1024.37 1023.91 1023.67 1023.68 1023.76 1023.67 1023.70 1023.45 1023.46
1025.80 1025.65 1025.51 1025.12 1024.85 1023.99 1023.72 1023.16 1022.83 1022.52 1021.86 1021.73 1021.34 1020.83 1019.95 1019.48 1019.74 1019.70 1020.19 1020.54 1020.99 1021.32 1021.51 1021.89 1022.31 1022.54 1022.89 1023.35 1023.68 1024.15 1024.38 1024.70 1024.83 1025.03 1024.48 1023.82 1023.70 1023.44 1023.33 1023.17 1023.13 1023.23 1023.03
1025.94 1025.90 1025.56 1025.15 1024.83 1024.68 1024.29 1023.68 1023.28 1022.80 1022.29 1021.99 1021.54 1021.18 1020.53 1020.05 1019.40 1019.55 1019.83 1020.14 1020.54 1020.65 1020.94 1021.15 1021.44 1021.88 1022.22 1022.52 1022.91 1023.24 1023.31 1023.81 1024.02 1024.29 1024.24 1023.77 1023.78 1023.16 1022.82 1022.69 1022.86 1022.63 1022.44
Wind_Speed
9 11 15 17 21 21 20 18 17 16 16 15 14 14 13 12 11 9 9 9 14 17 21 23 20 22 21 21 21 21 21 20 19 18 18 18 19 19 17 15 16 13 18
13 12 14 16 19 20 18 17 16 15 15 17 14 13 13 12 11 10 10 8 12 19 22 21 21 22 21 21 21 21 20 20 18 16 15 15 19 19 15 16 17 15 18
14 12 12 16 18 18 19 17 15 14 15 16 16 14 13 11 11 9 6 12 15 22 23 22 21 21 20 20 20 20 19 17 17 15 12 6 7 17 17 16 15 16 15
14 11 11 14 19 18 18 17 16 15 16 16 14 13 14 13 10 9 9 15 21 23 23 22 21 20 20 18 17 17 13 10 14 12 6 5 8 16 17 18 19 17 17
13 9 10 16 18 19 18 16 15 15 15 15 13 12 13 14 11 10 11 18 21 22 22 22 20 19 19 16 14 13 13 17 16 12 7 7 6 12 16 15 16 15 15
11 11 12 17 18 17 16 16 16 15 13 13 13 11 12 13 12 11 11 18 19 20 21 21 19 18 17 14 12 11 12 17 15 8 7 7 5 15 14 13 13 12 12
12 12 12 15 17 17 16 16 16 15 13 11 11 12 11 12 13 12 12 18 20 18 20 20 19 17 15 12 10 9 11 16 10 7 6 5 6 14 13 12 12 12 12
14 12 12 12 13 15 17 16 15 14 13 12 10 10 11 11 12 12 13 17 20 19 20 18 18 17 15 11 9 8 11 14 10 8 6 5 10 12 11 12 10 13 11
13 12 10 10 12 11 12 13 14 14 12 11 9 8 11 10 13 11 11 17 20 18 19 18 17 16 14 10 8 7 10 12 7 6 6 3 9 10 12 10 11 11 11
9 10 9 7 8 7 7 12 13 12 12 12 11 10 9 10 12 11 9 12 18 17 17 17 14 14 15 10 6 5 9 14 7 6 4 4 9 9 9 9 8 9 8
5 9 9 7 7 7 6 7 10 13 13 11 9 11 8 5 7 7 8 11 15 17 17 15 14 13 10 9 7 5 5 4 7 4 3 9 7 8 8 7 7 6 6
3 5 8 7 6 6 6 6 5 6 5 5 5 6 5 6 6 6 9 10 11 13 16 15 12 11 6 3 3 2 1 4 5 4 4 7 8 9 6 6 6 5 5
2 3 8 8 7 7 6 4 3 3 3 4 6 5 6 6 6 4 4 3 4 8 5 7 7 3 4 3 3 1 0 4 4 3 5 8 7 7 7 6 5 4 3
12 14 6 2 9 6 5 5 4 3 3 4 5 6 6 5 5 5 4 5 5 4 6 5 4 4 4 3 4 4 3 4 4 2 4 8 7 6 7 6 5 4 3
15 14 12 10 6 4 7 5 6 4 4 4 5 7 6 6 5 4 3 4 6 5 5 5 5 5 4 4 3 4 3 2 5 4 3 8 8 7 7 6 7 7 6
12 12 14 12 13 6 5 5 6 5 5 4 4 6 6 7 5 4 4 4 5 6 4 5 5 5 5 4 4 4 3 2 3 3 3 4 9 10 9 8 8 9 9
11 12 13 13 15 13 8 8 2 5 6 6 4 6 7 6 6 6 4 4 4 4 4 4 4 4 4 3 4 4 4 3 3 3 4 4 5 8 10 12 11 12 12
6 15 14 14 16 13 7 7 8 6 6 6 6 5 7 6 7 5 4 4 4 4 4 3 3 3 2 3 3 3 3 3 4 3 3 3 4 5 7 11 12 14 14
12 11 12 14 12 12 10 3 7 5 1 6 7 6 7 7 7 5 5 4 5 4 3 3 1 3 3 1 2 1 2 3 4 3 5 5 5 4 3 6 10 11 14
6 8 8 10 12 9 8 4 4 7 6 2 4 5 7 6 7 6 4 5 5 5 4 2 3 2 2 3 1 2 2 4 4 4 5 4 5 5 5 5 5 5 11
8 8 9 10 7 7 6 5 4 3 4 3 0 5 4 5 6 7 5 5 4 5 6 5 3 5 3 2 3 2 3 6 6 5 4 5 5 6 6 5 4 4 4
8 10 10 8 7 5 4 2 1 3 4 3 1 4 5 6 7 7 7 7 6 4 5 6 5 3 2 4 3 2 3 4 3 5 4 5 7 5 6 6 6 6 6
9 9 10 10 10 7 7 4 4 3 4 3 2 3 5 7 8 9 8 7 6 6 6 6 7 8 5 4 5 4 1 3 2 2 3 4 5 4 4 5 7 7 6
6 6 8 9 9 9 10 7 7 4 4 5 5 7 5 8 8 7 8 7 6 4 6 6 5 6 4 5 1 4 2 2 3 4 2 4 5 5 6 4 5 6 6
5 5 5 6 6 8 9 8 6 5 4 5 5 8 9 7 9 9 8 7 7 6 6 6 5 5 4 3 4 2 3 4 4 4 5 3 2 4 4 4 5 4 5
4 5 6 7 6 6 6 7 8 7 8 5 5 5 5 5 6 9 8 8 8 8 9 8 8 9 10 9 5 5 4 3 4 4 6 7 4 4 4 4 5 5 4
Wind_Direction
161 154 152 150 145 141 140 135 133 130 125 115 110 106 96 92 89 111 142 130 133 128 115 107 106 100 96 96 95 94 94 87 83 80 83 76 84 81 86 78 78 67 75
138 146 150 153 148 144 139 138 136 136 130 124 116 111 102 96 88 86 141 144 133 121 113 112 106 104 103 102 102 102 102 96 84 76 73 71 86 82 86 78 89 80 83
138 145 149 150 146 144 140 139 141 142 136 126 121 115 106 92 88 83 94 152 125 123 118 113 112 110 109 110 109 109 107 102 101 101 87 64 64 86 84 78 77 85 90
137 145 144 145 143 142 141 142 143 143 134 129 125 119 113 98 81 74 87 134 126 122 118 116 114 115 114 114 115 115 116 108 104 90 65 50 77 85 72 78 75 73 85
135 132 135 132 142 143 142 144 145 142 134 130 127 124 121 110 91 79 96 129 126 121 119 118 117 117 115 118 115 104 83 100 91 80 72 58 56 80 77 73 74 74 78
137 125 130 133 139 141 141 144 143 137 131 131 128 127 125 117 107 95 114 128 124 118 119 118 118 117 117 119 102 84 87 101 96 89 88 93 72 82 97 81 83 76 75
130 130 134 138 140 140 142 143 141 138 134 127 126 124 121 118 115 106 124 130 120 121 121 122 122 120 120 116 106 70 53 106 102 92 84 104 91 96 94 90 97 90 83
132 135 140 136 137 141 142 141 140 135 132 120 126 127 124 114 117 109 123 137 125 129 126 126 127 125 126 125 98 70 72 115 107 101 88 73 93 98 88 97 95 87 80
128 132 137 138 141 140 140 137 133 129 124 115 109 110 124 113 119 110 116 140 133 132 134 133 131 131 129 119 98 71 70 105 103 107 104 100 106 99 105 90 95 92 94
121 128 128 139 138 133 139 138 126 127 121 123 126 125 117 113 114 113 107 141 138 136 135 134 137 136 130 126 116 67 43 102 108 107 105 101 108 107 100 102 90 103 93
128 141 141 149 135 129 129 130 123 129 130 132 134 136 124 121 112 102 101 122 142 137 134 134 136 125 123 134 116 64 34 134 122 116 114 125 113 114 112 103 103 96 92
164 152 150 156 145 140 141 132 127 135 141 139 142 146 130 117 112 111 108 102 127 132 135 133 128 123 116 115 109 41 43 126 123 135 134 136 134 127 129 122 116 112 104
268 154 170 166 152 153 133 150 136 148 161 142 152 150 132 121 124 118 111 107 118 116 127 125 129 143 146 163 151 206 224 103 126 150 149 150 153 156 149 150 142 129 124
8 14 325 156 160 144 149 163 158 160 167 157 165 154 140 136 134 140 134 139 130 142 140 142 150 162 180 187 179 201 159 118 141 152 165 172 178 181 175 171 169 176 179
8 357 4 22 343 153 162 167 161 177 158 183 151 155 149 143 138 129 157 161 143 146 160 156 165 162 201 180 194 178 170 157 155 161 173 196 193 203 204 201 202 203 207
10 3 345 26 4 310 172 174 166 166 161 155 150 147 152 145 143 134 134 148 131 152 164 161 176 174 188 168 174 146 162 147 139 150 188 200 212 204 225 236 237 226 231
11 360 5 14 20 25 32 1 252 181 164 155 158 151 134 140 147 143 130 138 136 124 164 165 166 167 161 152 161 170 171 167 169 181 173 188 215 240 229 224 241 252 256
2 17 358 14 26 341 44 9 341 267 161 161 161 153 146 138 145 143 139 152 137 124 121 131 129 115 154 188 161 189 209 180 230 218 232 193 201 211 236 243 249 250 256
6 15 12 23 14 342 329 10 325 289 256 168 157 159 161 151 149 150 150 162 137 135 140 152 138 139 155 149 202 119 217 214 213 228 240 255 256 230 206 244 248 248 257
21 27 5 26 359 5 317 6 352 13 349 264 149 152 165 162 158 155 159 172 151 147 158 153 146 144 160 175 205 219 235 248 251 238 241 241 243 246 245 245 248 251 253
32 35 19 9 355 352 12 8 322 353 307 324 232 154 164 166 161 170 163 173 181 167 166 170 158 174 194 125 100 338 285 253 249 242 237 243 248 240 241 245 242 246 254
17 19 8 1 357 356 13 271 256 291 281 271 258 197 184 174 161 177 179 177 188 173 174 173 163 142 191 178 140 109 299 324 290 234 221 231 237 237 240 236 234 234 239
28 16 8 350 343 4 357 335 335 292 232 249 288 216 209 196 186 179 182 180 179 176 195 187 183 171 184 192 194 156 168 232 310 316 274 254 247 239 243 246 242 242 245
19 21 359 1 347 4 359 352 4 350 344 14 330 322 213 215 199 201 195 193 194 187 191 202 191 188 145 175 195 227 225 157 184 313 300 264 241 241 248 255 263 263 251
22 12 346 6 350 1 348 353 350 342 335 320 324 320 319 197 203 197 202 195 200 209 209 183 179 190 195 174 177 166 214 228 220 227 274 276 290 242 245 249 267 258 253
15 19 344 1 360 353 339 349 346 339 334 327 325 317 330 318 202 197 197 205 216 213 210 198 207 209 209 210 195 193 173 175 197 203 233 264 273 273 244 236 247 255 253